Regional Weather Roundup
Issued by NWS Sterling, VA

Home | Current Version | Previous Version | Graphics & Text | Print | Product List | Glossary On
Versions: 1 2 3 4 5 6 7 8 9 10 11 12 13 14 15 16 17 18 19 20 21 22 23 24 25 26 27 28 29 30 31 32 33 34 35 36 37 38 39 40 41 42 43 44 45 46 47 48 49 50
000
ASUS41 KLWX 312110
RWRLWX

REGIONAL WEATHER ROUNDUP
NATIONAL WEATHER SERVICE BALTIMORE MD/WASHINGTON DC
400 PM EST SAT JAN 31 2015

Note: "FAIR" indicates few or no clouds below 12,000 feet
with no significant weather and/or obstructions to visibility.
 TC=TEMPERATURE CELSIUS

 * =Non NWS site. Station does not report precipitation (e.g. rain,
    snow, etc.), thunder, or fog.

DCZ001-MDZ009-015-VAZ040>042-051-053>054-312200-
WASHINGTON METRO

CITY           SKY/WX    TMP DP  RH WIND       PRES   REMARKS
WASHINGTON NAT MOSUNNY   35   7  31 NW6       30.28F
DULLES         MOSUNNY   33   8  35 NW10      30.25F WCI  25
ANDREWS AFB    SUNNY     31   7  36 NW10      30.25F WCI  22
FT BELVOIR     SUNNY     35   7  30 W9        30.27F WCI  28
QUANTICO       SUNNY     36   7  29 SW6       30.28F
COLLEGE PARK*  SUNNY     32   5  32 W10       30.26F WCI  24
LEESBURG*      SUNNY     32  14  47 NW7       30.26S
MANASSAS*      SUNNY     36   9  32 NW6       30.27S
GAITHERSBURG*  SUNNY     28   9  43 W8        30.27S WCI  20

$$

MDZ006>007-011-014-312200-
BALTIMORE METRO

CITY           SKY/WX    TMP DP  RH WIND       PRES   REMARKS
BWI AIRPORT    MOSUNNY   31   5  33 NW14      30.25F WCI  21
MD SCIENCE CTR   N/A     30   3  31 MISG      30.26F
MARTIN STATE   SUNNY     30   9  40 W13       30.27S WCI  20
ANNAPOLIS      SUNNY     31   7  36 NW7       30.26F
FORT MEADE*    SUNNY     32   7  34 W7        30.28F

$$

MDZ012-015-019>023-312200-
MARYLAND EASTERN SHORE

CITY           SKY/WX    TMP DP  RH WIND       PRES   REMARKS
OCEAN CITY     SUNNY     31   6  35 NW15G21   30.22R WCI  20
SALISBURY      SUNNY     33   6  32 NW17G24   30.23F WCI  22
BAY BRIDGE AP*   N/A     32   9  37 W10G16    30.26F WCI  24
CAMBRIDGE*     SUNNY     32   9  37 NW10G18   30.25F WCI  24
EASTON*        SUNNY     32   9  37 NW17G35   30.29S WCI  21

$$

MDZ017>025-312200-
SOUTHERN MARYLAND

CITY           SKY/WX    TMP DP  RH WIND       PRES   REMARKS
PATUXENT RIVER MOSUNNY   33   7  33 NW10      30.26F WCI  25
ST INIGOES     NOT AVBL
LEONARDTOWN*   SUNNY     34   5  29 W9        30.27F WCI  26

$$

MDZ003>005-312200-
NORTH CENTRAL MARYLAND

CITY           SKY/WX    TMP DP  RH WIND       PRES   REMARKS
FREDERICK*     SUNNY     34   3  27 W6        30.28F
HAGERSTOWN APT SUNNY     30   8  39 W13       30.22F WCI  20
WESTMINSTER*   SUNNY     27   3  36 W14       30.21S WCI  15

$$

MDZ501>502-312200-
WESTERN MARYLAND

CITY           SKY/WX    TMP DP  RH WIND       PRES   REMARKS
OAKLAND*       SUNNY     23   5  46 W8        30.12S WCI  14
CUMBERLAND*    SUNNY     34   9  35 W7        30.27S

$$

VAZ025>031-312200-
SHENANDOAH VALLEY

CITY           SKY/WX    TMP DP  RH WIND       PRES   REMARKS
WINCHESTER*    SUNNY     36   3  25 W10       30.22S WCI  28
FRONT ROYAL*   FAIR      36   7  30 N3        30.21S
LURAY*         FAIR      41   7  24 SW3       30.21S
NEW MARKET*    FAIR      37   7  29 SW3       30.21S
STAUNTON*      SUNNY     40   2  21 CALM      30.21S
WAYNESBORO*    FAIR      40   2  20 SW3       30.18R

$$

WVZ021-048>050-054>055-312200-
EASTERN WEST VIRGINIA PANHANDLE

CITY           SKY/WX    TMP DP  RH WIND       PRES   REMARKS
MARTINSBURG    SUNNY     34   8  33 W8        30.24S WCI  27
PETERSBURG*    SUNNY     37   1  21 W3        30.23S

$$

VAZ036>039-050-312200-
CENTRAL FOOTHILLS

CITY           SKY/WX    TMP DP  RH WIND       PRES   REMARKS
CHARLOTTESVILL SUNNY     41   2  19 SE7       30.22S
CULPEPER*      SUNNY     37   3  23 CALM      30.26R
ORANGE*        SUNNY     41   3  20 CALM      30.25S
GORDONSVILLE*  FAIR      40   1  19 S5        30.23R
WARRENTON*     FAIR      38  13  36 CALM      30.24S

$$

VAZ055>057-312200-
NORTH AND CENTRAL PIEDMONT

CITY           SKY/WX    TMP DP  RH WIND       PRES   REMARKS
FREDERICKSBRG* SUNNY     39   4  23 CALM      30.26S
STAFFORD*      SUNNY     37  -1  19 CALM      30.30F

$$

NCZ024-NYZ072-PAZ021-071-VAZ022-071-312200-
OTHER REGIONAL OBSERVATIONS

CITY           SKY/WX    TMP DP  RH WIND       PRES   REMARKS
NEW YORK CITY  SUNNY     26   0  32 NW9G21    30.12R WCI  17
PHILADELPHIA   SUNNY     29   4  34 NW14G24   30.20S WCI  18
PITTSBURGH     MOSUNNY   28  14  55 SW10G16   30.23F WCI  19
ROANOKE        MOSUNNY   44   2  17 SW15      30.25S
RICHMOND       PTSUNNY   42   4  20 W9        30.27S
RALEIGH        MOSUNNY   47   6  18 W5        30.28F

$$

ANZ530>537-312200-
MARINE OBSERVATIONS

STATION/POSITION TIME  TEMP    WIND        PRES
                       AIR SEA DIR/SP/G
                 (UTC) (F)     (DEG/KT/KT) (MB)
THOMAS PT LIGHT  2100   30 35  300/ 14/ 16 1025.6F
BALT KEY BRIDGE  2100   29     290/ 14/ 16 1024.5S
COVE POINT       2100   30     330/ 14/ 19 1024.6F
LEWISETTA        2100   32 34  310/  8/ 11 1025.0R
SOLOMONS ISLAND  2100      36                N/A
PINEY POINT      2100          330/ 15/ 16   N/A

$$




USA.gov is the U.S. government's official web portal to all federal, state and local government web resources and services.